[[{"header":{"parameterUnit":"m.s-1","parameterCategory":1,"la1":30.2991,"la2":30.254,"lo1":-89.0895,"lo2":-89.0444,"dy":0.0017,"dx":0.0017,"nx":28,"ny":28,"refTime":"2026-01-03T03:00:00:Z","depth":0,"parameterNumber":2,"parameterNumberName":"U-component_of_WINDS"},"data":[0,0,0,0,0,0,0,0,0,0,0,0,0,0,0,0,0,0,0,0,0,0,0,0,0,0,0,0,0,0,0,0,0,0,0,0,0,0,0,0,0,0,0,0,0,0,0,0,0,0,0,0,0,0,0,0,0,0,-1.2799,-1.28,0,-1.2877,-1.2878,-1.2878,-1.288,-1.2879,-1.2878,-1.2877,-1.2958,-1.2961,-1.2964,0,0,0,0,0,0,0,0,0,0,0,0,0,-1.2654,-1.2657,-1.2799,-1.28,-1.2801,-1.2877,-1.2878,-1.2879,-1.288,-1.2879,-1.2878,-1.2877,-1.2957,-1.296,-1.2964,0,0,0,0,0,0,0,0,0,0,0,0,0,-1.2723,-1.2658,-1.2799,-1.2811,-1.2813,-1.2876,-1.2878,-1.2879,-1.2881,-1.2879,-1.2878,-1.2876,-1.2955,-1.296,-1.2964,-1.3021,0,0,-1.2978,-1.298,0,0,0,0,0,0,0,0,-1.2719,-1.2728,-1.2808,-1.281,-1.2813,-1.2867,-1.2856,-1.2927,-1.2881,-1.2855,-1.2877,-1.2876,-1.2929,-1.2935,-1.2953,-1.3025,-1.3028,-1.2979,-1.2981,-1.2983,-1.2985,0,0,0,0,0,0,0,-1.2714,-1.2725,-1.283,-1.281,-1.2812,-1.2813,-1.2821,-1.2869,-1.2899,-1.2857,-1.2857,-1.2866,-1.293,-1.2949,-1.2955,-1.303,-1.2978,-1.2983,-1.2985,-1.2987,-1.3153,-1.3154,0,0,0,0,0,0,-1.2707,-1.2721,-1.2828,-1.2832,-1.2761,-1.2817,-1.2826,-1.2851,-1.2899,-1.2904,-1.2868,-1.2866,-1.2942,-1.295,-1.2958,-1.3028,-1.2983,-1.2988,-1.299,-1.3151,-1.3153,-1.3155,0,0,0,0,0,0,-1.2704,-1.2717,-1.2824,-1.2777,-1.2791,-1.2821,-1.2849,-1.2853,-1.2873,-1.2906,-1.2912,-1.2882,-1.2941,-1.2951,-1.3006,-1.3031,-1.299,-1.2994,-1.3149,-1.3152,-1.3154,-1.3169,0,0,0,0,0,0,-1.27,-1.2715,-1.2737,-1.2777,-1.2793,-1.2871,-1.2851,-1.2856,-1.288,-1.2879,-1.2921,-1.2927,-1.2941,-1.2999,-1.301,-1.3037,-1.2997,-1.3147,-1.315,-1.3153,-1.3166,-1.3172,-1.3176,0,0,0,0,0,-1.2695,-1.2738,-1.2738,-1.2751,-1.2821,-1.2872,-1.2881,-1.2896,-1.2882,-1.2905,-1.2926,-1.2925,-1.3026,-1.3004,-1.3017,-1.3045,-1.3145,-1.3149,-1.3153,-1.3164,-1.3171,-1.3176,0,0,0,0,0,0,-1.2701,-1.2744,-1.2744,-1.2802,-1.2833,-1.2872,-1.2901,-1.2902,-1.2938,-1.2936,-1.2953,-1.2963,-1.3016,-1.3036,-1.3011,-1.3103,-1.3084,-1.3091,-1.3088,-1.3095,-1.31,-1.3094,-1.3001,0,0,0,0,0,-1.2709,-1.2747,-1.2782,-1.283,-1.2846,-1.287,-1.2893,-1.2902,-1.2935,-1.2948,-1.2974,-1.3007,-1.3046,-1.3071,-1.3109,-1.3169,-1.3178,-1.3195,-1.32,-1.3203,-1.3209,-1.3243,-1.3251,-1.3167,-1.3167,-1.3167,0,0,-1.2726,-1.2754,-1.2777,-1.2832,-1.2857,-1.2896,-1.2882,-1.2923,-1.2953,-1.2955,-1.3008,-1.3028,-1.3065,-1.3122,-1.3149,-1.3141,-1.3234,-1.3208,-1.3211,-1.3215,-1.3248,-1.3256,-1.3263,-1.317,-1.3169,-1.3169,0,0,-1.2778,-1.2803,-1.2845,-1.2871,-1.2909,-1.2925,-1.2935,-1.2974,-1.2987,-1.304,-1.3043,-1.3078,-1.3145,-1.3172,-1.3194,-1.3255,-1.3256,-1.3267,-1.3294,-1.3326,-1.3333,-1.3339,-1.3362,-1.3369,-1.3273,-1.3273,-1.3273,0,-1.2795,-1.2853,-1.2867,-1.2909,-1.2934,-1.2937,-1.2981,-1.3005,-1.3054,-1.3071,-1.306,-1.3144,-1.3169,-1.3233,-1.3248,-1.3266,-1.3279,-1.3263,-1.3331,-1.3337,-1.3343,-1.3364,-1.3373,-1.3274,-1.3274,-1.3274,-1.3273,0,-1.2873,-1.2913,-1.2943,-1.299,-1.3017,-1.306,-1.3081,-1.3107,-1.3113,-1.3131,-1.3185,-1.3215,-1.326,-1.3275,-1.3282,-1.334,-1.3334,-1.3327,-1.3308,-1.3351,-1.3372,-1.3381,-1.3276,-1.3275,-1.3275,-1.3274,0,0,-1.2931,-1.2985,-1.2996,-1.3017,-1.3059,-1.3091,-1.3134,-1.3177,-1.32,-1.3233,-1.327,-1.3326,-1.332,-1.3345,-1.3354,-1.3383,-1.3431,-1.3372,-1.3374,-1.3383,-1.3498,-1.3504,-1.3513,-1.3431,-1.3432,-1.3434,-1.3495,0,-1.2988,-1.3064,-1.3078,-1.3145,-1.3183,-1.3186,-1.3224,-1.3254,-1.3271,-1.3306,-1.3325,-1.3365,-1.3353,-1.3369,-1.3397,-1.3419,-1.3454,-1.3414,-1.3466,-1.3468,-1.3458,-1.3524,-1.353,-1.3587,-1.3503,-1.3505,-1.3506,0,-1.3065,-1.31,-1.317,-1.3208,-1.3224,-1.3258,-1.3298,-1.3331,-1.3366,-1.3376,-1.3404,-1.3411,-1.3456,-1.3434,-1.3497,-1.347,-1.3492,-1.3505,-1.3508,-1.3514,-1.349,-1.3533,-1.3605,-1.3614,-1.3519,-1.3518,-1.3517,0,-1.3102,-1.3166,-1.3217,-1.3235,-1.328,-1.3303,-1.3323,-1.3356,-1.3381,-1.3416,-1.3433,-1.3473,-1.3495,-1.3526,-1.3544,-1.3526,-1.3605,-1.3585,-1.3616,-1.3616,-1.3634,-1.3633,-1.3711,-1.3646,-1.3646,-1.3646,-1.3645,0,-1.3164,-1.3208,-1.3234,-1.3266,-1.3314,-1.3329,-1.3377,-1.3397,-1.3426,-1.3461,-1.3466,-1.3499,-1.3519,-1.3556,-1.3569,-1.362,-1.3629,-1.364,-1.3643,-1.364,-1.3639,-1.3655,-1.3652,-1.3648,-1.3647,-1.3647,-1.3647,0,-1.3214,-1.3234,-1.3289,-1.3327,-1.3337,-1.3371,-1.3404,-1.3434,-1.3451,-1.3496,-1.3507,-1.3534,-1.3577,-1.3597,-1.365,-1.3659,-1.3717,-1.3717,-1.3705,-1.3707,-1.3737,-1.3734,-1.383,-1.3844,-1.3768,-1.3769,-1.3769,0,-1.3254,-1.3287,-1.3328,-1.3352,-1.3372,-1.341,-1.3436,-1.3452,-1.3479,-1.352,-1.3546,-1.3589,-1.3624,-1.3693,-1.3717,-1.3758,-1.3759,-1.379,-1.3766,-1.3762,-1.3761,-1.3759,-1.3763,-1.3795,-1.3796,-1.3796,-1.3797,0,-1.3322,-1.3329,-1.3366,-1.3406,-1.3436,-1.3468,-1.35,-1.3519,-1.354,-1.357,-1.3614,-1.3641,-1.3695,-1.3738,-1.378,-1.3801,-1.3803,-1.3804,-1.3814,-1.3811,-1.3804,-1.3809,-1.3718,-1.3802,-1.3802,-1.3801,-1.3801,-1.3801,-1.3368,-1.3398,-1.3432,-1.3472,-1.3497,-1.3527,-1.3558,-1.3578,-1.3615,-1.366,-1.3667,-1.3714,-1.3748,-1.3805,-1.3827,-1.3864,-1.3857,-1.387,-1.3874,-1.3877,-1.3879,-1.3797,-1.3871,-1.3871,-1.3871,-1.3871,-1.3871,0,-1.3437,-1.3459,-1.3496,-1.354,-1.3572,-1.357,-1.3605,-1.3632,-1.3673,-1.3704,-1.3738,-1.3789,-1.383,-1.3858,-1.39,-1.3924,-1.3926,-1.3935,-1.3934,-1.3939,-1.3883,-1.3871,-1.3933,-1.3933,-1.3932,-1.3932,-1.3932,-1.3932,-1.3477,-1.3528,-1.354,-1.3603,-1.3624,-1.367,-1.369,-1.3718,-1.3742,-1.3798,-1.3833,-1.385,-1.388,-1.3924,-1.3963,-1.397,-1.3985,-1.3994,-1.4001,-1.3949,-1.3943,-1.3936,-1.3925,-1.3997,-1.3998,-1.4054,-1.4055,-1.4055]},{"header":{"parameterUnit":"m.s-1","parameterCategory":1,"la1":30.2991,"la2":30.254,"lo1":-89.0895,"lo2":-89.0444,"dy":0.0017,"dx":0.0017,"nx":28,"ny":28,"refTime":"2026-01-03T03:00:00:Z","depth":0,"parameterNumber":3,"parameterNumberName":"V-component_of_WINDS"},"data":[0,0,0,0,0,0,0,0,0,0,0,0,0,0,0,0,0,0,0,0,0,0,0,0,0,0,0,0,0,0,0,0,0,0,0,0,0,0,0,0,0,0,0,0,0,0,0,0,0,0,0,0,0,0,0,0,0,0,-3.841,-3.8411,0,-3.8474,-3.8474,-3.8475,-3.8431,-3.8429,-3.8427,-3.8425,-3.8486,-3.849,-3.8493,0,0,0,0,0,0,0,0,0,0,0,0,0,-3.8248,-3.8251,-3.841,-3.8411,-3.8412,-3.8474,-3.8474,-3.8475,-3.8431,-3.8428,-3.8426,-3.8424,-3.8485,-3.8489,-3.8494,0,0,0,0,0,0,0,0,0,0,0,0,0,-3.8316,-3.8252,-3.841,-3.8397,-3.8397,-3.8473,-3.8475,-3.8476,-3.8431,-3.8428,-3.8425,-3.8423,-3.8484,-3.8489,-3.8494,-3.8586,0,0,-3.851,-3.8513,0,0,0,0,0,0,0,0,-3.8312,-3.8322,-3.8398,-3.8398,-3.8398,-3.8441,-3.844,-3.8513,-3.8432,-3.8418,-3.8425,-3.8421,-3.8474,-3.848,-3.8498,-3.8589,-3.8592,-3.8511,-3.8514,-3.8516,-3.8518,0,0,0,0,0,0,0,-3.8307,-3.8319,-3.8435,-3.84,-3.8399,-3.8387,-3.8394,-3.8453,-3.8462,-3.8419,-3.8416,-3.8424,-3.8473,-3.8493,-3.8499,-3.8593,-3.8511,-3.8515,-3.8518,-3.8521,-3.8763,-3.8766,0,0,0,0,0,0,-3.8304,-3.8315,-3.8433,-3.8437,-3.8347,-3.8393,-3.84,-3.843,-3.8461,-3.8463,-3.8427,-3.8422,-3.8485,-3.8493,-3.8501,-3.8611,-3.8516,-3.8521,-3.8524,-3.876,-3.8764,-3.8767,0,0,0,0,0,0,-3.8301,-3.8315,-3.8431,-3.8375,-3.8389,-3.8399,-3.8433,-3.8433,-3.8453,-3.8467,-3.8468,-3.8446,-3.8483,-3.8494,-3.8566,-3.8613,-3.8523,-3.8528,-3.8756,-3.8761,-3.8766,-3.8833,0,0,0,0,0,0,-3.8296,-3.8314,-3.835,-3.8377,-3.8392,-3.8495,-3.8436,-3.8436,-3.8463,-3.8457,-3.8485,-3.8487,-3.8482,-3.8558,-3.8571,-3.8618,-3.8532,-3.8752,-3.8758,-3.8764,-3.8826,-3.8839,-3.885,0,0,0,0,0,-3.8291,-3.8365,-3.8352,-3.8366,-3.8437,-3.8498,-3.8507,-3.8501,-3.8467,-3.8502,-3.8511,-3.8486,-3.8606,-3.8566,-3.858,-3.863,-3.8749,-3.8756,-3.8764,-3.8821,-3.8837,-3.885,0,0,0,0,0,0,-3.8343,-3.8369,-3.8354,-3.844,-3.8467,-3.8491,-3.8535,-3.8518,-3.8555,-3.8548,-3.8537,-3.8544,-3.862,-3.8632,-3.8587,-3.8721,-3.8672,-3.8682,-3.871,-3.8726,-3.8737,-3.8733,-3.8537,0,0,0,0,0,-3.8364,-3.8413,-3.8432,-3.8506,-3.8521,-3.8526,-3.8552,-3.8545,-3.8573,-3.8584,-3.8598,-3.8625,-3.8669,-3.8697,-3.8738,-3.8828,-3.8833,-3.8869,-3.8881,-3.8891,-3.89,-3.8949,-3.8965,-3.8792,-3.8792,-3.8792,0,0,-3.8409,-3.8429,-3.846,-3.8517,-3.8537,-3.8587,-3.8536,-3.859,-3.8627,-3.8591,-3.8661,-3.8673,-3.8702,-3.8783,-3.882,-3.8796,-3.8949,-3.89,-3.8908,-3.8912,-3.8958,-3.8974,-3.8989,-3.8797,-3.8796,-3.8795,0,0,-3.8516,-3.8536,-3.86,-3.8622,-3.8655,-3.8658,-3.8673,-3.87,-3.8706,-3.8776,-3.8751,-3.8794,-3.8869,-3.8891,-3.8913,-3.9029,-3.9008,-3.9043,-3.9106,-3.9153,-3.9167,-3.9179,-3.9221,-3.9236,-3.9052,-3.9052,-3.9052,0,-3.8567,-3.8642,-3.8635,-3.8692,-3.8718,-3.8689,-3.8754,-3.8775,-3.8819,-3.8837,-3.8809,-3.8904,-3.8922,-3.9008,-3.9037,-3.9055,-3.9072,-3.904,-3.9166,-3.9178,-3.9189,-3.9229,-3.9245,-3.9056,-3.9056,-3.9055,-3.9055,0,-3.8704,-3.8756,-3.8804,-3.8849,-3.8879,-3.894,-3.8941,-3.8973,-3.8963,-3.8969,-3.9041,-3.9061,-3.9106,-3.9126,-3.9116,-3.9212,-3.9196,-3.9167,-3.9118,-3.921,-3.9247,-3.9262,-3.9062,-3.906,-3.9059,-3.9058,0,0,-3.8845,-3.8886,-3.8904,-3.8924,-3.8958,-3.8998,-3.9056,-3.9102,-3.913,-3.9161,-3.921,-3.9275,-3.9249,-3.9273,-3.9266,-3.9307,-3.9399,-3.9274,-3.9274,-3.9297,-3.9506,-3.9528,-3.9546,-3.9385,-3.9388,-3.939,-3.9504,0,-3.8955,-3.9059,-3.9055,-3.9152,-3.92,-3.9174,-3.9226,-3.9252,-3.9259,-3.93,-3.9307,-3.9354,-3.9316,-3.9331,-3.9371,-3.938,-3.9441,-3.9371,-3.943,-3.9433,-3.9425,-3.9565,-3.9588,-3.9695,-3.9518,-3.9521,-3.9523,0,-3.9097,-3.9134,-3.9237,-3.9265,-3.9285,-3.9331,-3.9373,-3.9413,-3.9441,-3.9443,-3.9471,-3.9457,-3.9516,-3.9465,-3.9546,-3.9499,-3.9523,-3.9531,-3.9535,-3.9541,-3.9484,-3.9575,-3.9728,-3.9744,-3.9545,-3.9544,-3.9542,0,-3.9191,-3.9267,-3.9338,-3.9356,-3.939,-3.9423,-3.9439,-3.9465,-3.9492,-3.9528,-3.9546,-3.9588,-3.9611,-3.9643,-3.9641,-3.9603,-3.9723,-3.9672,-3.9727,-3.9727,-3.9753,-3.9752,-3.9913,-3.9768,-3.9767,-3.9767,-3.9767,0,-3.9314,-3.9378,-3.9381,-3.9425,-3.9496,-3.949,-3.956,-3.9571,-3.9595,-3.964,-3.9619,-3.9662,-3.9656,-3.9699,-3.9697,-3.9765,-3.9775,-3.9778,-3.9777,-3.9781,-3.978,-3.9796,-3.9789,-3.9771,-3.977,-3.977,-3.9769,0,-3.9431,-3.9436,-3.9512,-3.9538,-3.9546,-3.9597,-3.9619,-3.9661,-3.9666,-3.9724,-3.9737,-3.9745,-3.9795,-3.9796,-3.9851,-3.985,-3.9934,-3.9923,-3.9924,-3.9923,-3.9978,-3.9973,-4.0155,-4.0179,-4.0018,-4.0019,-4.0021,0,-3.9509,-3.9558,-3.959,-3.962,-3.9638,-3.9686,-3.9714,-3.971,-3.9741,-3.9778,-3.9815,-3.9862,-3.99,-3.998,-3.9991,-4.0033,-4.0025,-4.0086,-4.0031,-4.0033,-4.0027,-4.0024,-4.0029,-4.0097,-4.0098,-4.01,-4.0101,0,-3.9649,-3.9649,-3.9692,-3.9736,-3.9772,-3.9806,-3.9837,-3.9862,-3.9861,-3.9896,-3.9948,-3.9977,-4.0035,-4.0083,-4.0124,-4.0139,-4.012,-4.0118,-4.0133,-4.0138,-4.0137,-4.0139,-3.9954,-4.0114,-4.0113,-4.0112,-4.0111,-4.0111,-3.975,-3.9792,-3.9822,-3.9871,-3.9894,-3.9924,-3.9965,-3.9976,-4.0019,-4.0067,-4.0061,-4.0118,-4.0146,-4.02,-4.0219,-4.0262,-4.0241,-4.0263,-4.0268,-4.0274,-4.0281,-4.0129,-4.027,-4.0269,-4.0269,-4.0269,-4.0268,0,-3.9889,-3.9907,-3.9952,-3.9997,-4.0036,-4.0016,-4.005,-4.0083,-4.0134,-4.0162,-4.02,-4.0259,-4.0305,-4.0319,-4.0364,-4.0396,-4.0389,-4.0408,-4.0406,-4.041,-4.0297,-4.0279,-4.0414,-4.0414,-4.0414,-4.0414,-4.0414,-4.0414,-3.9966,-4.0037,-4.0041,-4.0124,-4.0141,-4.0198,-4.0219,-4.0247,-4.0269,-4.0336,-4.0375,-4.0385,-4.0408,-4.0454,-4.0495,-4.0498,-4.0516,-4.0539,-4.0539,-4.0432,-4.0418,-4.0404,-4.0388,-4.0543,-4.0543,-4.0648,-4.0649,-4.065]}]]